Lexington Weather

Lexington, Massachusetts, USA

68°F
7/3/2020 12:41pm 
  • Lexington Conditions: Overcast
  • Temperature: 67.8°F / 19.9°CColder 0.9°F than last hour.
  • Dew Point: 63.9°FDecreased 0.9°Fsince last hour.
  • Relative Humidity: 87
  • Wind: Wind from N N 2 mph, 10-min avg: 1 mph, gust: 3 mph
  • Barometer: 29.86 in Steady
  • Visibility: 10 miles
  • Rain Today: 0.00 in
  •   

Regional Weather Roundup
for Boston / Norton, MA

        
000
ASUS41 KBOX 300604
RWRBOX

REGIONAL WEATHER ROUNDUP
NATIONAL WEATHER SERVICE BOSTON/NORTON MA
200 AM EDT TUE JUN 30 2020

NOTE:  "FAIR" INDICATES FEW OR NO CLOUDS BELOW 12,000 FEET WITH NO 
SIGNIFICANT WEATHER AND/OR OBSTRUCTIONS TO VISIBILITY.

MAZALL-300700-
EASTERN MASSACHUSETTS
  
CITY           SKY/WX    TMP DP  RH WIND       PRES   REMARKS
BOSTON         CLOUDY    64  62  93 N8        29.87F                  
6HR MIN TEMP:  63; 6HR MAX TEMP:  64; 6HR PCP:  0.10;                

BEVERLY        CLOUDY    62  62 100 N7        29.87S FOG              
LAWRENCE       CLOUDY    63  62  97 NE6       29.90S FOG              
BEDFORD        CLOUDY    64  62  93 NE8       29.87S FOG              
BLUE HILL        N/A     61  61 100 NE3       29.87S                  
NORWOOD        CLOUDY    66  62  87 CALM      29.86F                  
MARSHFIELD     CLOUDY    66  66 100 CALM      29.86S                  
PLYMOUTH       MOCLDY    65  64  97 N3        29.86S                  
TAUNTON        CLOUDY    67  64  90 CALM      29.86S                  
NEW BEDFORD    CLOUDY    67  65  93 CALM      29.84F                  
$$

MAZALL-300700-
CAPE COD AND THE ISLANDS
  
CITY           SKY/WX    TMP DP  RH WIND       PRES   REMARKS
FALMOUTH       CLOUDY    63  63 100 MISG      29.85S                  
HYANNIS        CLOUDY    68  63  84 NE3       29.84S                  
CHATHAM        CLOUDY    65  61  87 CALM      29.85S                  
PROVINCETOWN   PTCLDY    63  63 100 CALM      29.86S                  
NANTUCKET      CLOUDY    63  61  93 NE6       29.84R                  
MARTHAS VNYRD  CLOUDY    66  64  93 CALM      29.84F                  
$$
 
MAZALL-300700-
CENTRAL AND WESTERN MASSACHUSETTS
  
CITY           SKY/WX    TMP DP  RH WIND       PRES   REMARKS
WORCESTER      LGT RAIN  62  61  96 NE5       29.90R VSB 1/2          
6HR MIN TEMP:  62; 6HR MAX TEMP:  67; 6HR PCP:  0.04;                

FITCHBURG      CLOUDY    64  62  93 NE6       29.90R FOG              
ORANGE         CLOUDY    65  62  90 N6        29.90S                  
SPRINGFIELD    CLOUDY    66  64  94 CALM      29.87R                  
WESTFIELD      CLOUDY    65  63  93 CALM      29.88S                  
NORTH ADAMS    LGT RAIN  64  63  96 CALM      29.90S FOG              
PITTSFIELD     CLOUDY    64  61  90 CALM      29.90S                  
$$
 
RIZALL-300700-
RHODE ISLAND
  
CITY           SKY/WX    TMP DP  RH WIND       PRES   REMARKS
PROVIDENCE     CLOUDY    66  64  93 NE7       29.87S                  
6HR MIN TEMP:  66; 6HR MAX TEMP:  70;                                

NEWPORT        CLOUDY    67  65  93 CALM      29.86S                  
BLOCK ISLAND   CLOUDY    65  65 100 N3        29.88R                  
SMITHFIELD     CLOUDY    64  64 100 NE3       29.88S                  
WESTERLY       CLOUDY    68  64  87 CALM      29.87S                  
$$
 
CTZALL-300700-
CONNECTICUT
  
CITY           SKY/WX    TMP DP  RH WIND       PRES   REMARKS
BRADLEY INTL   CLOUDY    66  62  87 N6        29.87S                  
6HR MIN TEMP:  64; 6HR MAX TEMP:  70;                                

HARTFORD       CLOUDY    68  63  84 N5        29.86F                  
BRIDGEPORT     CLEAR     69  64  84 CALM      29.87F                  
DANBURY        MOCLDY    64  62  93 SW3       29.90S                  
GROTON         MOCLDY    66  64  93 NE5       29.85F                  
NEW HAVEN      CLOUDY    68  65  90 N3        29.87S                  
CHESTER        NOT AVBL                                               
MERIDEN        NOT AVBL                                               
WILLIMANTIC    CLOUDY    66  65  96 CALM      29.88R                  
OXFORD         CLOUDY    63  63 100 CALM      29.90S                  
$$

MEZ002-015-021-024-NHZ003-005-008-011-012-014-VTZ005-008-300700-
NORTHERN NEW ENGLAND
  
CITY           SKY/WX    TMP DP  RH WIND       PRES   REMARKS
PORTLAND ME    CLOUDY    66  63  90 CALM      29.89F                  
6HR MIN TEMP:  64; 6HR MAX TEMP:  66;                                

BANGOR ME      CLOUDY    66  63  90 NE9       29.92F                  
CONCORD NH     CLOUDY    63  62  97 NW3       29.90S                  
MANCHESTER NH  CLOUDY    64  62  93 NE3       29.88S                  
NASHUA NH      LGT RAIN  63  63 100 NE3       29.89F                  
PORTSMOUTH NH  CLOUDY    63  63  98 NE8       29.87F FOG              
JAFFREY NH     LGT RAIN  62  60  93 CALM      29.92R                  
KEENE NH       CLOUDY    63  62  97 CALM      29.91R                  
BURLINGTON VT  MOCLDY    67  64  90 N7        29.92S                  
MT. WASHINGTON DRZL/FOG  46  46 100 E22         N/A  VSB 1/16         
$$

NYZ052-076-300700-
EASTERN NEW YORK
  
CITY           SKY/WX    TMP DP  RH WIND       PRES   REMARKS
ALBANY         CLOUDY    68  62  81 CALM      29.90F                  
6HR MIN TEMP:  67; 6HR MAX TEMP:  71; 6HR PCP:  0.01;                

NEW YORK CITY  PTCLDY    72  63  73 N6        29.87S                  
6HR MIN TEMP:  72; 6HR MAX TEMP:  77; 6HR PCP: TRACE;                

$$
 
ANZALL-300700-
MARINE OBSERVATIONS
  
STATION/POSITION TIME  TEMP    WIND        PRES    VSBY  WAVE
                       AIR SEA DIR/SP/G                  HT/PER
                 (UTC) (F)     (DEG/KT/KT) (MB)    (MI)  (FT/S)
BOSTON BUOY      0450   65 66  350/  4/  6 1010.4          3/ 6
BUZZARDS BAY     0500           30/  5/  5 1012.1R
NANTUCKET SOUND  0540   65 70   60/  8/ 10 1010.2R
MASS BAY-STELLWA NOT AVBL
ISLE OF SHOALS   0500   61      30/ 16/ 18 1011.2F
S OF BLOCK IS    0526      70                N/A           3/10
$$

......................KEY.........................
  SKY/WX - SKY CONDITION/PRESENT WEATHER
  TMP    - TEMPERATURE IN FAHRENHEIT
  DWPT   - DEWPOINT IN FAHRENHEIT
  RH     - RELATIVE HUMIDITY IN PERCENT
  WIND   - DIRECTION AND SPEED IN MPH
  PRES   - MEAN SEA LEVEL PRESSURE IN INCHES OF HG
  WCI    - WIND CHILL INDEX
  VSB    - VISIBILITY IN MILES
  HX     - HEAT INDEX
  TC     - TEMPERATURE IN CELSIUS
  VRB    - VARIABLE WIND DIRECTION
  N/A    - NOT AVAILABLE
  
      

Other recent Regional Weather Roundups

Fri Jul 3, 12:04pm

Fri Jul 3, 11:04am

Fri Jul 3, 10:04am

Fri Jul 3, 9:04am

Fri Jul 3, 8:04am

Fri Jul 3, 7:04am

Fri Jul 3, 6:04am

Fri Jul 3, 5:04am

Fri Jul 3, 4:04am

Fri Jul 3, 3:04am

Fri Jul 3, 2:04am

Fri Jul 3, 1:04am

Fri Jul 3, 12:04am

Thu Jul 2, 11:05pm

Thu Jul 2, 10:04pm

Thu Jul 2, 9:04pm

Thu Jul 2, 8:04pm

Thu Jul 2, 7:05pm

Thu Jul 2, 6:04pm

Thu Jul 2, 5:05pm

Thu Jul 2, 4:04pm

Thu Jul 2, 3:04pm

Thu Jul 2, 2:04pm

Thu Jul 2, 1:05pm

Thu Jul 2, 12:04pm

Thu Jul 2, 11:04am

Thu Jul 2, 10:05am

Thu Jul 2, 9:05am

Thu Jul 2, 8:04am

Thu Jul 2, 7:04am

Thu Jul 2, 6:05am

Thu Jul 2, 5:04am

Thu Jul 2, 4:04am

Thu Jul 2, 3:04am

Thu Jul 2, 2:04am

Thu Jul 2, 1:04am

Thu Jul 2, 12:05am

Wed Jul 1, 11:05pm

Wed Jul 1, 10:04pm

Wed Jul 1, 9:04pm

Wed Jul 1, 8:04pm

Wed Jul 1, 7:04pm

Wed Jul 1, 6:04pm

Wed Jul 1, 5:05pm

Wed Jul 1, 4:04pm

Wed Jul 1, 3:04pm

Wed Jul 1, 2:04pm

Wed Jul 1, 1:04pm

Wed Jul 1, 12:04pm

Wed Jul 1, 11:04am

Wed Jul 1, 10:04am

Wed Jul 1, 9:04am

Wed Jul 1, 8:05am

Wed Jul 1, 7:04am

Wed Jul 1, 6:04am

Wed Jul 1, 5:04am

Wed Jul 1, 4:04am

Wed Jul 1, 3:04am

Wed Jul 1, 2:04am

Wed Jul 1, 1:04am

Wed Jul 1, 12:04am

Tue Jun 30, 11:04pm

Tue Jun 30, 10:05pm

Tue Jun 30, 9:04pm

Tue Jun 30, 8:05pm

Tue Jun 30, 7:05pm

Tue Jun 30, 6:04pm

Tue Jun 30, 5:04pm

Tue Jun 30, 4:04pm

Tue Jun 30, 3:04pm

Tue Jun 30, 2:04pm

Tue Jun 30, 1:04pm

Tue Jun 30, 12:04pm

Tue Jun 30, 11:04am

Tue Jun 30, 10:04am

Tue Jun 30, 9:04am

Tue Jun 30, 8:04am

Tue Jun 30, 7:04am

Tue Jun 30, 6:04am

Tue Jun 30, 5:04am

Tue Jun 30, 4:04am

Tue Jun 30, 3:04am

Tue Jun 30, 1:04am

Tue Jun 30, 12:04am

Mon Jun 29, 11:04pm

Mon Jun 29, 10:05pm

Mon Jun 29, 9:04pm

Mon Jun 29, 8:05pm

Mon Jun 29, 7:04pm

Mon Jun 29, 6:04pm

Mon Jun 29, 5:04pm

Mon Jun 29, 4:05pm

Mon Jun 29, 3:04pm

Mon Jun 29, 2:04pm

Mon Jun 29, 1:04pm

Mon Jun 29, 12:04pm

Mon Jun 29, 11:04am

Mon Jun 29, 10:04am

Mon Jun 29, 9:04am

Mon Jun 29, 8:04am

Mon Jun 29, 7:04am

Mon Jun 29, 6:04am

Mon Jun 29, 5:04am

Mon Jun 29, 4:04am

Mon Jun 29, 3:04am

Mon Jun 29, 2:04am

Mon Jun 29, 1:04am

Mon Jun 29, 12:04am

Sun Jun 28, 11:05pm

Sun Jun 28, 10:04pm

Sun Jun 28, 9:05pm

Sun Jun 28, 8:04pm

Sun Jun 28, 7:04pm

Sun Jun 28, 6:04pm

Sun Jun 28, 5:04pm

Sun Jun 28, 4:04pm

Sun Jun 28, 3:04pm

Sun Jun 28, 2:05pm

Sun Jun 28, 1:04pm

Sun Jun 28, 12:04pm

Sun Jun 28, 11:04am

Sun Jun 28, 10:04am

Sun Jun 28, 9:04am

Sun Jun 28, 8:04am

Sun Jun 28, 7:04am

Sun Jun 28, 6:04am

Sun Jun 28, 5:04am

Sun Jun 28, 4:04am

Sun Jun 28, 3:04am

Sun Jun 28, 2:05am

Sun Jun 28, 1:04am

Sun Jun 28, 12:05am

Sat Jun 27, 11:04pm

Sat Jun 27, 10:04pm

Sat Jun 27, 9:04pm

Sat Jun 27, 8:04pm

Sat Jun 27, 7:04pm

Sat Jun 27, 6:04pm

Sat Jun 27, 5:04pm

Sat Jun 27, 4:05pm

Sat Jun 27, 3:04pm

Sat Jun 27, 2:04pm

Sat Jun 27, 1:05pm

Sat Jun 27, 12:04pm

Sat Jun 27, 11:04am

Sat Jun 27, 10:04am

Sat Jun 27, 9:04am

Sat Jun 27, 8:04am

Sat Jun 27, 7:04am

Sat Jun 27, 6:04am

Sat Jun 27, 5:05am

Sat Jun 27, 4:04am

Sat Jun 27, 3:04am

Sat Jun 27, 2:04am

Sat Jun 27, 1:04am

Sat Jun 27, 12:04am

Fri Jun 26, 11:04pm

Fri Jun 26, 10:04pm

Fri Jun 26, 9:05pm

Fri Jun 26, 8:04pm

Fri Jun 26, 7:05pm

Fri Jun 26, 6:04pm

Fri Jun 26, 5:04pm

Fri Jun 26, 4:04pm

Fri Jun 26, 3:04pm

Fri Jun 26, 2:05pm

Fri Jun 26, 1:04pm

Meta data:

ID: 1c90f29b-1046-4715-9fc9-5a5c6d25abaa
Link: https://api.weather.gov/products/1c90f29b-1046-4715-9fc9-5a5c6d25abaa